Flag for U.S.A. Weather past 2 weeks in Sidney, Montana, U.S.A.

Now
81 °F

Sunny.


Feels Like: 81 °F
Forecast: 57 / 85 °F
Wind: No wind

Location: Sidney-Richland

Current Time: Jul 3, 2015 at 11:57:16 AM

Latest Report: Jul 3, 2015 at 11:35 AM


Visibility: 8 mi

Pressure: 29.98 "Hg (28.03 "Hg at 591m altitude)

Humidity: 51%

Dew point: 61 °F

Location of SidneyLocation

Historic Weather in Sidney — Graph

°F

Sidney temperature yesterday

Maximum temperature yesterday: 82 °F (at 2:35 PM)
Minimum temperature yesterday: 57 °F (at 4:15 AM)
Average temperature yesterday: 70 °F

Past Weeks' High & Low Weather Summary

 TemperatureHumidityPressure
High97 °F (Jun 29, 12:55 PM)94% (Jun 19, 4:35 AM)30.19 "Hg (Jun 19, 4:35 AM)
Low48 °F (Jun 21, 4:15 AM)17% (Jun 27, 3:15 PM)29.66 "Hg (Jun 19, 3:35 PM)
Average69 °F62%29.98 "Hg
* Reported Jun 18 10:15 AM — Jul 3 10:55 AM, Sidney, Weather by CustomWeather, © 2015

Note: Actual official high and low records may vary slightly from our data, if they occured in-between our weather recording intervals... More about our weather records

Advertising

Sidney weather history for previous 24 hours

 ConditionsComfort  
Time TempWeatherWind HumidityBarometerVisibility
10:55 AM
Fri, Jul 3
79 °FSunny.No wind54%29.99 "Hg9 mi
10:35 AM77 °FSunny.No wind61%30.00 "Hg7 mi
10:15 AM73 °FSunny.No wind69%30.00 "Hg5 mi
9:55 AM73 °FSunny.No wind69%30.01 "Hg5 mi
9:35 AM72 °FSunny.No wind69%30.01 "Hg5 mi
9:15 AM70 °FSunny.No wind73%30.02 "Hg5 mi
8:55 AM68 °FSunny.No wind78%30.02 "Hg4 mi
8:35 AM66 °FSunny.No wind83%30.02 "Hg5 mi
8:15 AM66 °FSunny.No wind83%30.02 "Hg4 mi
7:55 AM64 °FSunny.No wind88%30.02 "Hg4 mi
7:35 AM63 °FSunny.No wind88%30.02 "Hg3 mi
7:15 AM63 °FSunny.No wind83%30.02 "Hg2 mi
6:55 AM61 °FSunny.No wind88%30.02 "Hg2 mi
6:35 AM61 °FSunny.No wind88%30.02 "Hg2 mi
6:15 AM61 °FSunny.No wind88%30.02 "Hg1 mi
5:55 AM61 °FClear.No wind88%30.02 "Hg2 mi
5:35 AM59 °FClear.No wind94%30.01 "Hg2 mi
5:15 AM59 °FDense fog.No wind88%30.01 "Hg1 mi
4:55 AM59 °FClear.No wind88%30.01 "Hg2 mi
4:35 AM61 °FClear.No wind88%30.01 "Hg1 mi
4:15 AM61 °FClear.No wind88%30.01 "Hg2 mi
3:55 AM61 °FClear.No wind83%30.01 "Hg3 mi
3:35 AM61 °FClear.No wind88%30.01 "Hg4 mi
3:15 AM61 °FClear.No wind88%30.01 "Hg5 mi
2:55 AM63 °FClear.No wind83%30.02 "Hg5 mi
2:35 AM61 °FClear.No wind88%30.02 "Hg5 mi
2:15 AM63 °FClear.3 mph83%30.02 "Hg5 mi
1:55 AM63 °FClear.No wind83%30.02 "Hg5 mi
1:35 AM64 °FClear.No wind78%30.02 "Hg6 mi
1:15 AM64 °FClear.3 mph78%30.02 "Hg7 mi
12:55 AM64 °FClear.5 mph78%30.02 "Hg7 mi
12:35 AM66 °FClear.6 mph78%30.02 "Hg8 mi
11:55 PM
Thu, Jul 2
66 °FClear.10 mph73%30.02 "Hg7 mi
11:35 PM66 °FClear.No wind73%30.02 "Hg8 mi
11:15 PM66 °FClear.No wind73%30.02 "Hg8 mi
10:55 PM66 °FClear.No wind73%30.02 "Hg9 mi
10:35 PM66 °FClear.No wind78%30.02 "Hg9 mi
9:55 PM70 °FSunny.5 mph64%30.02 "Hg10 mi
9:35 PM70 °FSunny.8 mph64%30.02 "Hg10 mi
8:55 PM72 °FSunny.6 mph69%30.01 "Hg9 mi
8:35 PM73 °FSunny.3 mph65%30.00 "Hg10 mi
8:15 PM77 °FSunny.No wind57%30.00 "Hg9 mi
7:55 PM79 °FSunny.No wind51%30.00 "Hg10 mi
7:35 PM81 °FSunny.6 mph45%30.00 "Hg10 mi
7:15 PM81 °FSunny.5 mph45%30.00 "Hg9 mi
6:55 PM81 °FSunny.3 mph45%30.00 "Hg10 mi
6:35 PM81 °FSunny.8 mph45%30.00 "Hg10 mi
6:15 PM81 °FSunny.8 mph45%30.00 "Hg9 mi
5:55 PM81 °FSunny.9 mph45%30.01 "Hg9 mi
5:35 PM81 °FSunny.8 mph45%30.01 "Hg10 mi
5:15 PM82 °FSunny.10 mph42%30.01 "Hg10 mi
4:55 PM81 °FSunny.14 mph45%30.02 "Hg10 mi
4:35 PM81 °FSunny.12 mph45%30.02 "Hg10 mi
3:55 PM82 °FSunny.12 mph40%30.02 "Hg10 mi
3:35 PM82 °FSunny.9 mph37%30.02 "Hg10 mi
2:55 PM81 °FSunny.8 mph45%30.03 "Hg6 mi
2:35 PM82 °FSunny.9 mph42%30.03 "Hg5 mi
2:15 PM81 °FSunny.8 mph45%30.04 "Hg5 mi
1:55 PM81 °FSunny.6 mph45%30.04 "Hg5 mi
1:35 PM81 °FSunny.8 mph45%30.04 "Hg5 mi
1:15 PM79 °FSunny.8 mph48%30.05 "Hg4 mi
12:55 PM79 °FPassing clouds.No wind51%30.05 "Hg3 mi
12:35 PM77 °FScattered clouds.No wind54%30.05 "Hg3 mi
12:15 PM77 °FScattered clouds.9 mph51%30.06 "Hg3 mi
11:55 AM75 °FScattered clouds.No wind61%30.06 "Hg2 mi
11:35 AM75 °FSunny.No wind57%30.06 "Hg2 mi
11:15 AM73 °FSunny.No wind65%30.06 "Hg2 mi
Weather by CustomWeather, © 2015

See weather overviewHow to use our weather pages